QPF
0.03 0.03 0.03 0.02 0.03 0.02 0.02 0.03 0.03 0.05 0.06 0.07 0.06 0.05 0.05 0.05 0.05 0.04 0.03 0.03 0.04 0.04 0.03 0.02 0.04 0.04 0.05 0.06 0.07 0.09 0.07 0.06 0.05 0.05 0.08 0.11 0.11 0.08 0.06 0.03 0.03 0.02 0.02
0.02 0.03 0.04 0.03 0.02 0.02 0.03 0.04 0.05 0.05 0.06 0.06 0.06 0.05 0.04 0.04 0.05 0.05 0.04 0.05 0.06 0.06 0.06 0.06 0.05 0.05 0.03 0.03 0.04 0.06 0.06 0.07 0.07 0.07 0.08 0.09 0.10 0.09 0.08 0.06 0.05 0.05 0.05
0.01 0.02 0.02 0.02 0.01 0.02 0.03 0.04 0.04 0.04 0.04 0.04 0.05 0.05 0.05 0.04 0.04 0.05 0.06 0.07 0.05 0.06 0.06 0.06 0.06 0.04 0.03 0.03 0.03 0.04 0.04 0.06 0.06 0.07 0.09 0.08 0.05 0.04 0.04 0.03 0.04 0.04 0.05
0.00 0.01 0.02 0.02 0.01 0.02 0.02 0.02 0.02 0.03 0.04 0.06 0.07 0.10 0.08 0.05 0.04 0.03 0.04 0.06 0.07 0.07 0.07 0.07 0.07 0.07 0.06 0.04 0.04 0.04 0.05 0.05 0.05 0.06 0.07 0.06 0.04 0.03 0.02 0.02 0.02 0.02 0.03
0.01 0.01 0.01 0.02 0.02 0.02 0.02 0.02 0.02 0.02 0.03 0.05 0.06 0.11 0.16 0.12 0.08 0.05 0.04 0.05 0.09 0.09 0.07 0.04 0.04 0.05 0.07 0.07 0.07 0.06 0.06 0.05 0.04 0.05 0.07 0.07 0.04 0.02 0.01 0.01 0.02 0.02 0.02
0.02 0.02 0.03 0.04 0.03 0.03 0.03 0.03 0.03 0.03 0.03 0.03 0.04 0.06 0.10 0.15 0.11 0.06 0.05 0.06 0.07 0.05 0.03 0.03 0.03 0.04 0.06 0.07 0.08 0.08 0.08 0.07 0.06 0.06 0.07 0.07 0.05 0.02 0.01 0.01 0.01 0.02 0.02
0.03 0.04 0.05 0.05 0.04 0.04 0.03 0.02 0.02 0.03 0.03 0.04 0.06 0.07 0.07 0.09 0.10 0.06 0.05 0.04 0.04 0.04 0.03 0.03 0.03 0.03 0.05 0.07 0.08 0.08 0.09 0.10 0.08 0.07 0.07 0.06 0.05 0.03 0.01 0.02 0.02 0.03 0.02
0.04 0.04 0.04 0.05 0.07 0.07 0.06 0.03 0.04 0.04 0.03 0.04 0.05 0.07 0.08 0.08 0.07 0.06 0.04 0.04 0.04 0.03 0.04 0.05 0.05 0.05 0.06 0.08 0.10 0.10 0.09 0.09 0.07 0.06 0.05 0.06 0.06 0.04 0.03 0.03 0.03 0.03 0.02
0.07 0.07 0.05 0.06 0.07 0.07 0.06 0.04 0.04 0.05 0.04 0.03 0.05 0.06 0.07 0.06 0.06 0.07 0.06 0.06 0.05 0.06 0.05 0.05 0.05 0.06 0.07 0.07 0.07 0.06 0.06 0.06 0.06 0.05 0.05 0.05 0.07 0.07 0.05 0.04 0.04 0.05 0.03
0.07 0.07 0.06 0.06 0.06 0.06 0.04 0.04 0.04 0.05 0.07 0.05 0.06 0.06 0.06 0.05 0.04 0.04 0.03 0.03 0.03 0.04 0.05 0.04 0.06 0.06 0.07 0.07 0.06 0.05 0.05 0.05 0.06 0.05 0.05 0.05 0.06 0.08 0.07 0.06 0.06 0.05 0.04
0.07 0.08 0.09 0.08 0.07 0.05 0.05 0.05 0.04 0.04 0.04 0.05 0.05 0.06 0.06 0.06 0.06 0.04 0.03 0.03 0.03 0.04 0.04 0.05 0.06 0.06 0.06 0.06 0.05 0.04 0.04 0.05 0.06 0.07 0.06 0.05 0.05 0.07 0.06 0.06 0.06 0.05 0.04
0.08 0.11 0.10 0.08 0.07 0.07 0.06 0.07 0.05 0.05 0.04 0.04 0.03 0.04 0.06 0.07 0.07 0.07 0.04 0.03 0.03 0.04 0.04 0.04 0.05 0.05 0.05 0.05 0.04 0.03 0.03 0.04 0.05 0.07 0.07 0.06 0.06 0.05 0.06 0.05 0.04 0.05 0.06
0.08 0.12 0.12 0.11 0.10 0.08 0.06 0.06 0.05 0.05 0.04 0.04 0.03 0.03 0.06 0.10 0.10 0.09 0.08 0.06 0.04 0.04 0.04 0.04 0.04 0.04 0.04 0.03 0.02 0.02 0.03 0.03 0.04 0.05 0.04 0.04 0.06 0.06 0.05 0.04 0.04 0.05 0.06
0.09 0.13 0.14 0.13 0.11 0.08 0.06 0.06 0.05 0.05 0.05 0.06 0.05 0.05 0.06 0.08 0.12 0.11 0.08 0.09 0.06 0.05 0.05 0.05 0.04 0.03 0.03 0.02 0.01 0.01 0.02 0.03 0.02 0.02 0.02 0.02 0.03 0.05 0.04 0.03 0.04 0.04 0.04
0.08 0.08 0.07 0.08 0.09 0.07 0.06 0.05 0.04 0.05 0.06 0.06 0.06 0.06 0.07 0.07 0.07 0.06 0.06 0.07 0.07 0.05 0.04 0.04 0.03 0.03 0.02 0.01 0.01 0.01 0.02 0.02 0.02 0.02 0.02 0.02 0.03 0.04 0.04 0.03 0.02 0.03 0.03
0.06 0.07 0.06 0.07 0.06 0.05 0.07 0.08 0.08 0.06 0.06 0.06 0.05 0.05 0.07 0.08 0.06 0.04 0.04 0.05 0.06 0.06 0.05 0.04 0.02 0.01 0.01 0.01 0.01 0.02 0.03 0.02 0.02 0.02 0.02 0.02 0.03 0.03 0.04 0.04 0.03 0.03 0.03
0.06 0.06 0.07 0.07 0.06 0.06 0.07 0.10 0.08 0.05 0.05 0.06 0.06 0.05 0.05 0.05 0.05 0.04 0.03 0.03 0.03 0.04 0.04 0.02 0.02 0.01 0.01 0.02 0.02 0.02 0.02 0.02 0.01 0.02 0.02 0.02 0.03 0.04 0.04 0.04 0.04 0.04 0.04
0.05 0.06 0.07 0.07 0.05 0.06 0.08 0.09 0.07 0.05 0.04 0.04 0.04 0.04 0.03 0.03 0.03 0.03 0.02 0.01 0.02 0.03 0.04 0.03 0.03 0.02 0.02 0.03 0.03 0.02 0.01 0.01 0.02 0.03 0.03 0.04 0.04 0.04 0.03 0.03 0.03 0.03 0.03
0.05 0.05 0.05 0.05 0.05 0.06 0.07 0.05 0.04 0.03 0.02 0.02 0.02 0.02 0.02 0.02 0.02 0.03 0.02 0.01 0.02 0.02 0.03 0.03 0.04 0.03 0.02 0.03 0.02 0.02 0.01 0.01 0.02 0.03 0.04 0.04 0.03 0.04 0.03 0.03 0.02 0.02 0.02
0.06 0.05 0.04 0.03 0.04 0.06 0.06 0.03 0.02 0.02 0.02 0.02 0.01 0.01 0.02 0.03 0.03 0.03 0.02 0.01 0.02 0.03 0.03 0.04 0.04 0.03 0.03 0.03 0.03 0.03 0.02 0.01 0.02 0.02 0.03 0.03 0.03 0.03 0.03 0.02 0.02 0.02 0.02
0.04 0.03 0.03 0.03 0.03 0.05 0.05 0.03 0.03 0.02 0.02 0.02 0.01 0.01 0.02 0.02 0.01 0.02 0.03 0.03 0.03 0.04 0.04 0.05 0.05 0.05 0.04 0.04 0.04 0.05 0.04 0.03 0.03 0.03 0.04 0.03 0.03 0.04 0.04 0.03 0.03 0.03 0.03
0.03 0.03 0.04 0.05 0.05 0.06 0.05 0.04 0.03 0.03 0.03 0.02 0.01 0.01 0.01 0.01 0.02 0.03 0.04 0.05 0.04 0.03 0.03 0.05 0.05 0.04 0.04 0.05 0.06 0.06 0.05 0.06 0.06 0.06 0.06 0.04 0.03 0.04 0.05 0.05 0.04 0.05 0.05
0.02 0.03 0.03 0.05 0.06 0.06 0.07 0.06 0.05 0.04 0.03 0.03 0.03 0.02 0.01 0.01 0.02 0.03 0.04 0.03 0.03 0.02 0.02 0.02 0.02 0.02 0.02 0.03 0.04 0.04 0.03 0.04 0.06 0.05 0.06 0.06 0.05 0.04 0.04 0.05 0.06 0.06 0.06
0.02 0.03 0.03 0.04 0.05 0.05 0.08 0.08 0.07 0.07 0.05 0.04 0.03 0.03 0.02 0.01 0.00 0.02 0.06 0.06 0.02 0.02 0.02 0.01 0.01 0.01 0.01 0.02 0.02 0.02 0.02 0.02 0.02 0.03 0.04 0.04 0.04 0.03 0.02 0.03 0.04 0.07 0.07
0.03 0.03 0.02 0.02 0.03 0.04 0.06 0.07 0.08 0.07 0.06 0.04 0.03 0.02 0.02 0.02 0.01 0.01 0.04 0.07 0.05 0.03 0.03 0.02 0.01 0.01 0.01 0.02 0.04 0.03 0.02 0.01 0.01 0.02 0.02 0.03 0.03 0.04 0.04 0.04 0.03 0.04 0.04
0.04 0.03 0.02 0.02 0.02 0.03 0.04 0.05 0.05 0.05 0.05 0.05 0.04 0.03 0.02 0.02 0.01 0.01 0.02 0.04 0.05 0.05 0.05 0.04 0.02 0.01 0.01 0.01 0.02 0.03 0.03 0.02 0.01 0.01 0.01 0.02 0.02 0.03 0.04 0.05 0.04 0.02 0.02
MSLP
1010.44 1010.76 1011.04 1011.27 1011.47 1011.67 1011.88 1012.13 1012.43 1012.79 1013.18 1013.59 1014.00 1014.38 1014.71 1014.99 1015.21 1015.39 1015.54 1015.70 1015.87 1016.07 1016.29 1016.55 1016.83 1017.11 1017.40 1017.67 1017.94 1018.18 1018.40 1018.59 1018.74 1018.83 1018.87 1018.84 1018.74 1018.61 1018.44 1018.28 1018.13 1018.01 1017.91
1010.05 1010.42 1010.74 1011.00 1011.23 1011.44 1011.66 1011.92 1012.24 1012.63 1013.07 1013.54 1013.99 1014.41 1014.77 1015.06 1015.27 1015.44 1015.58 1015.73 1015.91 1016.12 1016.37 1016.66 1016.96 1017.26 1017.54 1017.80 1018.04 1018.25 1018.45 1018.62 1018.77 1018.89 1018.96 1018.97 1018.93 1018.82 1018.67 1018.50 1018.33 1018.17 1018.03
1009.37 1009.79 1010.17 1010.50 1010.78 1011.03 1011.29 1011.59 1011.96 1012.39 1012.88 1013.39 1013.89 1014.34 1014.73 1015.02 1015.24 1015.40 1015.54 1015.69 1015.88 1016.11 1016.39 1016.70 1017.02 1017.32 1017.59 1017.83 1018.03 1018.22 1018.39 1018.57 1018.73 1018.89 1019.01 1019.08 1019.09 1019.03 1018.90 1018.73 1018.54 1018.35 1018.18
1008.46 1008.93 1009.39 1009.79 1010.15 1010.48 1010.80 1011.16 1011.57 1012.05 1012.57 1013.12 1013.66 1014.13 1014.53 1014.83 1015.05 1015.22 1015.37 1015.53 1015.73 1015.99 1016.29 1016.62 1016.95 1017.25 1017.51 1017.72 1017.90 1018.06 1018.23 1018.41 1018.60 1018.81 1018.99 1019.13 1019.20 1019.19 1019.10 1018.94 1018.74 1018.53 1018.33
1007.44 1007.96 1008.49 1008.98 1009.43 1009.84 1010.23 1010.65 1011.10 1011.61 1012.17 1012.73 1013.28 1013.76 1014.16 1014.46 1014.68 1014.85 1015.01 1015.19 1015.42 1015.70 1016.03 1016.38 1016.72 1017.02 1017.27 1017.46 1017.63 1017.77 1017.94 1018.13 1018.36 1018.61 1018.86 1019.07 1019.21 1019.26 1019.21 1019.08 1018.88 1018.67 1018.46
1006.46 1007.01 1007.61 1008.18 1008.71 1009.19 1009.65 1010.10 1010.59 1011.11 1011.66 1012.22 1012.75 1013.21 1013.60 1013.89 1014.11 1014.28 1014.45 1014.66 1014.91 1015.22 1015.58 1015.95 1016.31 1016.61 1016.86 1017.06 1017.21 1017.36 1017.52 1017.73 1017.99 1018.29 1018.60 1018.87 1019.07 1019.18 1019.18 1019.08 1018.92 1018.72 1018.52
1005.65 1006.23 1006.87 1007.50 1008.08 1008.61 1009.10 1009.58 1010.06 1010.57 1011.09 1011.61 1012.10 1012.52 1012.87 1013.14 1013.35 1013.52 1013.71 1013.93 1014.22 1014.56 1014.95 1015.35 1015.73 1016.06 1016.32 1016.52 1016.68 1016.83 1017.00 1017.23 1017.51 1017.84 1018.18 1018.50 1018.76 1018.93 1018.98 1018.93 1018.81 1018.66 1018.50
1005.11 1005.69 1006.35 1007.01 1007.62 1008.16 1008.65 1009.11 1009.56 1010.02 1010.48 1010.94 1011.36 1011.73 1012.04 1012.27 1012.46 1012.63 1012.82 1013.07 1013.38 1013.76 1014.18 1014.62 1015.03 1015.39 1015.68 1015.90 1016.07 1016.23 1016.41 1016.64 1016.93 1017.28 1017.64 1017.99 1018.29 1018.50 1018.61 1018.62 1018.57 1018.48 1018.38
1004.88 1005.46 1006.11 1006.76 1007.34 1007.85 1008.30 1008.71 1009.10 1009.49 1009.88 1010.26 1010.61 1010.91 1011.16 1011.35 1011.51 1011.67 1011.86 1012.11 1012.45 1012.85 1013.31 1013.79 1014.24 1014.64 1014.97 1015.23 1015.43 1015.61 1015.80 1016.03 1016.31 1016.65 1017.01 1017.37 1017.69 1017.94 1018.10 1018.18 1018.20 1018.18 1018.17
1004.97 1005.53 1006.14 1006.73 1007.25 1007.69 1008.06 1008.39 1008.70 1009.01 1009.32 1009.62 1009.89 1010.13 1010.32 1010.46 1010.59 1010.72 1010.90 1011.15 1011.49 1011.91 1012.39 1012.90 1013.39 1013.84 1014.22 1014.52 1014.76 1014.96 1015.17 1015.40 1015.68 1016.00 1016.35 1016.70 1017.03 1017.30 1017.50 1017.65 1017.74 1017.81 1017.89
1005.33 1005.85 1006.38 1006.88 1007.30 1007.65 1007.92 1008.15 1008.38 1008.60 1008.84 1009.07 1009.28 1009.46 1009.59 1009.69 1009.77 1009.86 1010.00 1010.22 1010.53 1010.94 1011.43 1011.95 1012.48 1012.97 1013.40 1013.75 1014.04 1014.29 1014.52 1014.76 1015.04 1015.34 1015.67 1016.01 1016.34 1016.63 1016.87 1017.07 1017.24 1017.39 1017.56
1005.88 1006.33 1006.78 1007.16 1007.46 1007.68 1007.85 1007.99 1008.13 1008.30 1008.48 1008.66 1008.82 1008.95 1009.04 1009.08 1009.09 1009.12 1009.19 1009.35 1009.60 1009.96 1010.41 1010.93 1011.47 1011.99 1012.46 1012.88 1013.23 1013.53 1013.81 1014.08 1014.36 1014.66 1014.99 1015.32 1015.64 1015.95 1016.22 1016.47 1016.70 1016.93 1017.17
1006.54 1006.92 1007.25 1007.50 1007.67 1007.77 1007.84 1007.90 1007.99 1008.11 1008.26 1008.41 1008.55 1008.64 1008.68 1008.65 1008.59 1008.52 1008.49 1008.54 1008.69 1008.96 1009.34 1009.80 1010.32 1010.85 1011.36 1011.82 1012.24 1012.61 1012.95 1013.27 1013.59 1013.92 1014.25 1014.60 1014.93 1015.26 1015.56 1015.85 1016.13 1016.41 1016.70
1007.23 1007.53 1007.74 1007.87 1007.91 1007.90 1007.88 1007.89 1007.95 1008.06 1008.20 1008.35 1008.47 1008.54 1008.52 1008.42 1008.25 1008.06 1007.90 1007.80 1007.80 1007.92 1008.18 1008.55 1009.01 1009.52 1010.04 1010.55 1011.04 1011.48 1011.89 1012.29 1012.67 1013.04 1013.42 1013.80 1014.16 1014.52 1014.86 1015.18 1015.50 1015.82 1016.14
1007.89 1008.11 1008.22 1008.23 1008.17 1008.08 1008.00 1007.98 1008.03 1008.15 1008.31 1008.47 1008.59 1008.62 1008.55 1008.36 1008.08 1007.74 1007.41 1007.12 1006.94 1006.89 1006.98 1007.23 1007.59 1008.04 1008.55 1009.08 1009.61 1010.12 1010.62 1011.09 1011.55 1012.00 1012.44 1012.87 1013.29 1013.69 1014.07 1014.43 1014.78 1015.12 1015.47
1008.49 1008.63 1008.66 1008.58 1008.44 1008.30 1008.20 1008.18 1008.25 1008.40 1008.59 1008.76 1008.87 1008.88 1008.74 1008.46 1008.05 1007.56 1007.04 1006.56 1006.17 1005.92 1005.83 1005.91 1006.14 1006.51 1006.96 1007.48 1008.03 1008.60 1009.16 1009.72 1010.26 1010.79 1011.30 1011.80 1012.29 1012.74 1013.17 1013.57 1013.95 1014.31 1014.66
1008.98 1009.08 1009.05 1008.91 1008.74 1008.59 1008.50 1008.50 1008.60 1008.78 1009.00 1009.19 1009.29 1009.26 1009.07 1008.69 1008.17 1007.53 1006.84 1006.17 1005.58 1005.13 1004.84 1004.75 1004.83 1005.08 1005.45 1005.93 1006.46 1007.04 1007.64 1008.25 1008.86 1009.46 1010.05 1010.62 1011.16 1011.68 1012.16 1012.60 1013.01 1013.39 1013.75
1009.38 1009.46 1009.40 1009.26 1009.09 1008.95 1008.89 1008.93 1009.07 1009.28 1009.52 1009.71 1009.80 1009.74 1009.49 1009.04 1008.41 1007.66 1006.84 1006.02 1005.26 1004.64 1004.18 1003.92 1003.85 1003.96 1004.23 1004.61 1005.10 1005.64 1006.23 1006.85 1007.48 1008.12 1008.75 1009.37 1009.96 1010.53 1011.06 1011.55 1012.00 1012.40 1012.78
1009.69 1009.78 1009.73 1009.62 1009.48 1009.39 1009.37 1009.45 1009.62 1009.85 1010.09 1010.27 1010.34 1010.25 1009.96 1009.46 1008.78 1007.96 1007.06 1006.15 1005.29 1004.54 1003.96 1003.56 1003.35 1003.33 1003.46 1003.73 1004.11 1004.57 1005.09 1005.66 1006.26 1006.88 1007.50 1008.13 1008.75 1009.35 1009.92 1010.45 1010.93 1011.37 1011.78
1009.96 1010.07 1010.07 1010.01 1009.93 1009.89 1009.91 1010.02 1010.20 1010.43 1010.65 1010.81 1010.86 1010.74 1010.43 1009.92 1009.23 1008.40 1007.49 1006.56 1005.67 1004.87 1004.21 1003.72 1003.40 1003.25 1003.25 1003.38 1003.62 1003.95 1004.34 1004.79 1005.29 1005.83 1006.39 1006.98 1007.58 1008.17 1008.76 1009.31 1009.84 1010.33 1010.78
1010.21 1010.37 1010.43 1010.43 1010.41 1010.42 1010.48 1010.60 1010.77 1010.97 1011.16 1011.28 1011.29 1011.15 1010.84 1010.35 1009.70 1008.92 1008.07 1007.19 1006.34 1005.56 1004.89 1004.36 1003.96 1003.71 1003.58 1003.56 1003.63 1003.78 1004.00 1004.28 1004.62 1005.01 1005.45 1005.94 1006.47 1007.02 1007.59 1008.17 1008.73 1009.26 1009.77
1010.48 1010.69 1010.81 1010.87 1010.92 1010.96 1011.03 1011.14 1011.28 1011.43 1011.56 1011.62 1011.60 1011.44 1011.15 1010.70 1010.13 1009.44 1008.70 1007.92 1007.17 1006.46 1005.83 1005.30 1004.87 1004.54 1004.30 1004.13 1004.03 1003.98 1003.99 1004.06 1004.19 1004.39 1004.66 1005.00 1005.41 1005.88 1006.41 1006.97 1007.56 1008.14 1008.72
1010.76 1011.01 1011.19 1011.31 1011.39 1011.46 1011.52 1011.60 1011.68 1011.76 1011.82 1011.82 1011.75 1011.58 1011.30 1010.92 1010.43 1009.87 1009.26 1008.62 1007.99 1007.39 1006.84 1006.34 1005.91 1005.52 1005.18 1004.88 1004.61 1004.38 1004.18 1004.02 1003.92 1003.89 1003.95 1004.11 1004.36 1004.72 1005.17 1005.70 1006.29 1006.92 1007.56
1011.03 1011.32 1011.53 1011.69 1011.79 1011.85 1011.90 1011.93 1011.94 1011.94 1011.91 1011.85 1011.73 1011.55 1011.30 1010.97 1010.58 1010.13 1009.65 1009.15 1008.65 1008.16 1007.69 1007.24 1006.81 1006.40 1005.99 1005.58 1005.17 1004.76 1004.36 1003.99 1003.66 1003.41 1003.25 1003.20 1003.28 1003.50 1003.86 1004.33 1004.90 1005.56 1006.26
1011.26 1011.55 1011.78 1011.95 1012.05 1012.10 1012.11 1012.08 1012.03 1011.95 1011.85 1011.73 1011.57 1011.37 1011.13 1010.85 1010.53 1010.18 1009.80 1009.41 1009.01 1008.61 1008.21 1007.81 1007.39 1006.97 1006.51 1006.02 1005.51 1004.96 1004.40 1003.85 1003.33 1002.87 1002.50 1002.26 1002.16 1002.22 1002.46 1002.85 1003.39 1004.04 1004.79
1011.38 1011.66 1011.88 1012.04 1012.12 1012.15 1012.12 1012.05 1011.94 1011.80 1011.65 1011.48 1011.29 1011.08 1010.85 1010.60 1010.33 1010.03 1009.72 1009.39 1009.05 1008.70 1008.34 1007.95 1007.55 1007.11 1006.63 1006.10 1005.52 1004.88 1004.22 1003.54 1002.87 1002.24 1001.71 1001.29 1001.02 1000.93 1001.04 1001.33 1001.81 1002.44 1003.19
Thickness
5765 5765 5765 5764 5762 5759 5756 5753 5750 5747 5745 5741 5738 5734 5733 5732 5732 5731 5730 5729 5727 5725 5723 5722 5720 5719 5717 5715 5714 5713 5711 5710 5710 5708 5706 5708 5709 5708 5708 5707 5706 5706 5706
5758 5758 5759 5758 5757 5754 5752 5750 5748 5745 5743 5741 5738 5734 5732 5731 5730 5729 5727 5726 5725 5723 5721 5719 5718 5717 5715 5713 5711 5710 5708 5707 5706 5703 5700 5698 5699 5703 5705 5703 5703 5702 5702
5753 5753 5753 5753 5752 5749 5747 5747 5745 5743 5741 5738 5735 5732 5728 5726 5725 5724 5724 5723 5722 5721 5720 5718 5716 5714 5713 5711 5709 5708 5705 5702 5702 5701 5697 5692 5690 5694 5697 5698 5698 5698 5698
5751 5750 5750 5748 5747 5746 5746 5744 5742 5740 5738 5736 5733 5730 5726 5723 5723 5722 5721 5720 5719 5718 5717 5715 5713 5712 5711 5709 5708 5706 5704 5701 5698 5697 5696 5694 5692 5689 5688 5691 5693 5693 5693
5748 5747 5747 5746 5745 5744 5742 5740 5738 5735 5734 5733 5730 5727 5724 5722 5721 5720 5718 5717 5716 5715 5714 5712 5710 5709 5708 5707 5705 5704 5702 5700 5698 5695 5693 5690 5688 5687 5684 5683 5686 5687 5689
5744 5743 5743 5742 5741 5740 5738 5736 5733 5731 5730 5728 5725 5723 5721 5719 5717 5715 5714 5713 5712 5711 5710 5709 5707 5706 5705 5704 5703 5701 5699 5698 5696 5694 5691 5688 5686 5684 5681 5680 5680 5680 5683
5739 5738 5736 5736 5735 5734 5734 5732 5728 5726 5725 5723 5720 5718 5717 5715 5713 5712 5711 5709 5708 5707 5706 5705 5704 5703 5702 5701 5700 5698 5696 5694 5692 5691 5689 5687 5686 5684 5681 5678 5676 5675 5678
5735 5734 5733 5733 5731 5730 5729 5726 5723 5721 5720 5718 5715 5713 5712 5711 5710 5709 5708 5707 5705 5704 5703 5701 5700 5700 5699 5698 5696 5693 5692 5690 5688 5687 5685 5683 5682 5681 5679 5677 5673 5671 5673
5729 5729 5729 5728 5726 5725 5723 5722 5719 5716 5715 5713 5710 5708 5707 5706 5706 5705 5704 5703 5702 5701 5700 5699 5697 5697 5696 5694 5692 5689 5687 5686 5685 5683 5681 5680 5679 5678 5676 5675 5673 5669 5668
5723 5723 5723 5722 5721 5720 5719 5717 5715 5712 5709 5706 5705 5704 5702 5701 5701 5700 5699 5698 5697 5696 5695 5694 5693 5692 5691 5689 5687 5685 5684 5682 5680 5679 5677 5676 5675 5674 5673 5672 5670 5668 5667
5718 5719 5719 5719 5718 5715 5713 5711 5708 5705 5702 5700 5699 5698 5697 5696 5695 5694 5693 5693 5692 5691 5691 5689 5688 5687 5686 5684 5682 5680 5679 5677 5676 5675 5673 5673 5672 5670 5669 5668 5667 5665 5663
5714 5714 5715 5714 5712 5709 5707 5705 5702 5699 5698 5697 5695 5692 5690 5689 5688 5688 5688 5688 5687 5687 5686 5685 5683 5682 5680 5679 5677 5676 5675 5673 5672 5671 5669 5668 5667 5666 5665 5663 5663 5662 5660
5708 5708 5708 5708 5706 5704 5701 5699 5697 5695 5694 5692 5690 5687 5684 5683 5682 5682 5682 5682 5681 5681 5680 5680 5678 5677 5675 5673 5672 5671 5669 5668 5667 5666 5665 5664 5663 5661 5660 5659 5658 5657 5657
5703 5702 5701 5701 5701 5699 5697 5696 5693 5691 5689 5687 5684 5682 5679 5678 5678 5677 5677 5676 5676 5676 5675 5675 5673 5672 5670 5669 5667 5666 5664 5662 5662 5661 5660 5660 5659 5657 5656 5655 5654 5653 5652
5697 5697 5695 5694 5693 5693 5691 5690 5688 5686 5684 5682 5680 5678 5675 5674 5673 5673 5672 5672 5671 5671 5670 5670 5668 5667 5666 5665 5663 5661 5659 5657 5656 5656 5655 5655 5654 5653 5651 5651 5649 5649 5647
5692 5692 5691 5690 5689 5688 5686 5685 5683 5682 5680 5677 5675 5673 5671 5669 5668 5667 5667 5666 5665 5665 5664 5663 5663 5662 5662 5660 5658 5656 5654 5653 5652 5651 5650 5650 5649 5648 5647 5646 5645 5645 5643
5686 5686 5685 5685 5684 5683 5682 5681 5679 5677 5675 5672 5670 5668 5665 5663 5662 5661 5660 5660 5659 5658 5658 5657 5657 5656 5656 5655 5653 5651 5649 5648 5647 5646 5645 5644 5644 5642 5641 5640 5639 5639 5639
5680 5680 5679 5679 5679 5678 5676 5674 5673 5671 5668 5666 5664 5662 5659 5657 5656 5655 5655 5654 5654 5653 5652 5652 5652 5651 5650 5649 5647 5646 5644 5643 5642 5641 5639 5638 5637 5636 5635 5634 5633 5633 5633
5674 5674 5674 5673 5672 5671 5669 5667 5665 5664 5662 5661 5659 5657 5654 5652 5651 5650 5650 5649 5648 5647 5647 5647 5646 5645 5644 5642 5641 5640 5638 5637 5636 5635 5634 5632 5631 5630 5629 5628 5627 5627 5627
5667 5667 5666 5665 5664 5663 5662 5660 5658 5656 5655 5655 5654 5652 5650 5648 5647 5646 5644 5643 5642 5641 5641 5640 5639 5639 5637 5636 5635 5634 5632 5630 5630 5628 5627 5627 5625 5624 5623 5622 5622 5621 5620
5658 5659 5658 5657 5656 5655 5654 5652 5651 5650 5651 5649 5647 5646 5645 5644 5643 5641 5639 5638 5637 5636 5635 5634 5634 5632 5631 5630 5629 5628 5626 5624 5623 5622 5621 5621 5619 5619 5618 5617 5616 5616 5615
5648 5649 5648 5647 5647 5647 5647 5645 5644 5645 5645 5643 5641 5640 5639 5639 5638 5635 5633 5632 5631 5630 5629 5628 5627 5626 5625 5624 5622 5621 5620 5618 5617 5616 5615 5615 5613 5613 5612 5611 5610 5609 5608
5640 5640 5640 5639 5639 5639 5639 5638 5638 5638 5638 5636 5635 5634 5633 5632 5631 5630 5628 5626 5625 5624 5623 5622 5621 5620 5619 5618 5616 5615 5613 5612 5611 5610 5609 5608 5608 5607 5607 5606 5605 5604 5603
5631 5632 5631 5631 5631 5631 5631 5631 5631 5632 5631 5630 5628 5628 5627 5626 5625 5624 5623 5621 5620 5619 5618 5617 5615 5614 5613 5612 5610 5609 5607 5606 5604 5603 5602 5602 5602 5602 5601 5600 5600 5599 5598
5623 5623 5622 5622 5623 5623 5623 5624 5625 5625 5624 5623 5622 5622 5621 5620 5619 5618 5617 5616 5616 5616 5615 5614 5612 5610 5609 5607 5605 5603 5602 5600 5598 5597 5596 5596 5596 5596 5596 5595 5595 5594 5593
5615 5614 5615 5615 5616 5616 5617 5618 5618 5618 5618 5617 5616 5616 5615 5615 5613 5612 5611 5611 5611 5611 5610 5609 5608 5607 5605 5602 5600 5598 5596 5594 5593 5591 5591 5591 5591 5591 5590 5590 5590 5589 5589